Regional Weather Roundup
Issued by NWS Kansas City/Pleasant Hill, MO

Home | Current Version | Previous Version | Text Only | Print | Product List | Glossary On
Versions: 1 2 3 4 5 6 7 8 9 10 11 12 13 14 15 16 17 18 19 20 21 22 23 24 25 26 27 28 29 30 31 32 33 34 35 36 37 38 39 40 41 42 43 44 45 46 47 48 49 50
046
ASUS43 KEAX 220310
RWREAX

WEATHER ROUNDUP FOR EASTERN KANSAS AND NORTHWEST MISSOURI
NATIONAL WEATHER SERVICE KANSAS CITY/PLEASANT HILL MO
1000 PM CDT THU MAY 21 2015

KSZ040-057-103>105-MOZ028-029-037-043-220400-
...KANSAS CITY METROPOLITAN AREA...

CITY           SKY/WX    TMP DP  RH WIND       PRES   REMARKS
K.C. INTL      CLEAR     59  44  57 SW6       30.20R
K.C. DOWNTOWN  CLEAR     60  45  57 CALM      30.19S
LEES SUMMIT    FAIR      57  42  57 SW3       30.20S
OLATHE - IXD   CLEAR     55  47  74 S5        30.21R
OLATHE - OJC   CLEAR     58  47  66 CALM      30.20R
LAWRENCE       PTCLDY    53  48  83 CALM      30.21R

$$

MOZ001>008-011>017-020>025-030>033-038>040-044>046-053-054-220400-
...NORTHERN AND CENTRAL MISSOURI...

CITY           SKY/WX    TMP DP  RH WIND       PRES   REMARKS
ST. JOSEPH     CLEAR     56  50  80 SW5       30.19R
MOSBY          CLEAR     54  50  87 CALM      30.20R
WARRENSBURG    CLEAR     55  46  71 S3        30.20S
WHITEMAN AFB   CLEAR     54  47  77 SW6       30.19S
CLINTON        CLEAR     54  52  94 CALM      30.21S
SEDALIA        CLEAR     58  45  62 SW6       30.21R
WARSAW         NOT AVBL
CHILLICOTHE      N/A     60  47  61 SW3       30.18R
KIRKSVILLE     CLEAR     58  47  66 SW6       30.15R

$$

MOZ041-047>049-056>058-063>065-088>090-097-220400-
...EASTERN AND SOUTHERN MISSOURI...

CITY           SKY/WX    TMP DP  RH WIND       PRES   REMARKS
ST. LOUIS INTL PTCLDY    58  43  57 SW3       30.18S
SPIRIT OF STL  CLEAR     51  47  86 CALM      30.18R
COLUMBIA       CLEAR     54  45  71 SW6       30.19R
JEFFERSON CITY CLEAR     54  47  77 CALM      30.19R
ROLLA          CLEAR     46  42  86 SW6       30.19S
OSAGE BEACH    CLEAR     48  45  87 CALM      30.21S
SPRINGFIELD    PTCLDY    50  44  80 CALM      30.21R
BRANSON        CLEAR     50  46  87 CALM      30.23R
JOPLIN         CLEAR     52  48  86 CALM      30.22R
WEST PLAINS    CLEAR     49  44  83 CALM      30.22S

$$

IAZ060-094-KSZ022-034>040-054-083-096-NEZ052-066-093-220400-
...KANSAS...SOUTHEAST NEBRASKA AND IOWA...

CITY           SKY/WX    TMP DP  RH WIND       PRES   REMARKS
TOPEKA         CLEAR     58  49  72 CALM      30.21R
MANHATTAN      MOCLDY    56  47  71 CALM      30.21R
EMPORIA        PTCLDY    55  45  68 S5        30.21R
CHANUTE        CLEAR     53  49  86 SE3       30.22R
WICHITA        PTCLDY    56  45  66 S3        30.22R
OMAHA          PTCLDY    65  40  39 SW7       30.15R
LINCOLN        PTCLDY    61  41  47 SW3       30.20R
FALLS CITY     PTCLDY    59  43  55 SW6       30.18S
LAMONI         CLEAR     62  44  51 SW10      30.14R
DES MOINES     PTCLDY    63  41  44 W5        30.10R

$$




USA.gov is the U.S. government's official web portal to all federal, state and local government web resources and services.